Theta_e
317 317 317 317 318 318 318 318 317 318 318 319 319 319 319 320 321 321 322 322 322 323 323 324 325 325 326 326 327 327 326 326 321 320 317 318 329 339 339 340 340 338 334 318 316 312 308 309 309 311 311 314 315 313 313 318 313 312 305 300 296 296 294 299 298 299 300 299 299 301 302 302 299 303 304 305 303 302 303 302 304 305 305 305 306 307 308 310
316 316 316 316 316 317 317 317 317 317 317 317 318 319 319 319 320 321 322 322 322 322 323 324 325 326 326 326 326 327 324 326 320 315 312 331 339 340 340 336 338 337 330 317 311 309 307 307 309 309 308 308 315 309 315 313 314 309 300 298 295 296 297 300 301 301 300 300 302 302 302 301 300 303 302 300 300 301 301 301 303 302 304 305 306 306 307 308
315 315 315 315 316 317 317 317 317 317 317 317 317 318 318 319 320 320 321 321 322 323 323 324 325 325 326 326 326 324 324 331 318 312 320 334 340 339 339 338 337 334 319 312 311 310 308 307 307 306 307 304 311 307 311 310 310 305 300 297 296 301 298 301 303 301 302 303 301 301 301 300 301 302 305 300 298 301 299 298 300 302 302 302 304 305 306 307
314 315 315 315 316 317 316 316 317 316 317 318 318 317 318 319 319 320 321 321 322 323 323 324 324 325 325 325 326 324 325 328 311 313 326 337 339 340 337 333 332 329 321 316 312 311 310 310 308 308 309 304 306 309 306 308 305 304 299 297 300 299 298 299 302 303 302 302 302 301 301 300 302 302 302 300 297 299 299 300 300 300 301 302 303 304 305 306
315 316 316 315 316 316 315 316 317 316 317 317 317 317 317 319 319 319 321 321 322 323 323 324 324 325 325 325 324 324 323 306 308 323 323 336 340 338 335 332 330 321 316 313 312 311 311 308 307 308 309 300 305 304 300 305 307 304 298 301 300 298 299 301 302 302 301 301 300 301 298 300 303 303 300 300 296 296 299 300 301 302 301 302 302 304 305 305
316 316 316 316 316 317 316 316 317 317 317 317 317 317 318 318 319 320 320 321 322 322 323 324 324 324 324 324 320 325 323 294 308 321 330 332 338 334 333 330 329 319 314 312 311 310 309 308 307 305 301 299 299 297 300 302 306 297 300 300 300 300 300 303 303 302 300 302 300 300 301 302 301 300 302 302 300 299 301 302 302 302 302 303 304 304 304 304
316 316 316 316 316 316 317 316 316 317 317 317 317 317 318 319 319 319 320 320 322 322 323 323 324 324 323 322 325 316 311 309 315 325 328 333 333 333 331 330 326 315 312 310 310 310 312 306 305 304 302 301 300 300 302 303 307 301 296 300 300 302 301 304 302 301 300 300 300 302 302 300 300 297 301 300 300 302 302 302 302 302 303 304 303 303 303 304
316 316 316 316 316 315 316 316 316 316 317 317 317 317 318 319 319 319 319 321 321 322 323 323 323 323 323 323 326 317 314 308 317 326 327 332 325 322 324 320 316 321 313 310 309 308 307 304 302 305 300 299 301 301 303 303 303 300 300 301 301 301 302 302 301 300 301 301 301 302 299 299 300 300 300 299 300 301 301 302 302 302 302 302 302 302 303 303
317 316 316 317 316 316 316 315 317 317 317 317 317 317 318 319 319 319 320 320 321 322 322 323 323 323 323 319 317 305 305 320 325 327 329 324 315 314 322 317 314 313 312 312 311 311 311 306 304 303 298 300 302 302 302 299 299 301 300 301 302 301 303 301 301 301 300 302 302 299 298 300 301 301 299 300 301 301 302 301 301 302 301 301 301 302 302 302
316 316 316 316 317 317 317 317 317 317 318 318 317 317 318 318 318 319 319 320 321 322 322 322 322 322 317 321 319 299 319 318 323 324 322 319 313 315 315 318 315 312 312 311 312 310 310 306 308 307 307 303 306 301 303 302 298 302 300 301 300 301 302 302 300 302 302 301 301 298 298 300 300 299 294 299 301 301 301 301 301 301 300 300 301 301 301 302
316 316 316 317 318 318 318 318 318 317 317 317 317 317 317 318 318 319 320 320 321 322 322 322 322 320 321 313 307 299 322 322 327 320 317 321 314 313 318 317 314 314 312 313 311 310 309 308 311 308 309 301 303 301 302 300 302 302 301 300 300 301 301 301 301 301 301 300 301 300 298 300 299 299 296 298 300 301 300 300 300 300 299 299 301 300 303 302
316 316 317 317 318 319 319 319 319 318 317 317 317 317 317 317 318 319 320 321 321 322 322 322 321 316 316 311 305 306 314 326 327 318 320 318 318 320 319 313 312 320 313 310 316 317 316 314 310 305 299 305 298 302 300 303 303 302 301 296 299 301 300 301 300 301 301 299 300 301 297 296 295 294 298 299 300 300 300 300 300 300 299 299 299 299 299 300
317 316 317 318 318 319 320 320 320 318 318 318 316 317 317 318 318 319 320 321 322 322 321 322 320 320 318 305 307 311 319 322 321 318 319 317 315 314 313 317 316 312 313 312 311 317 316 311 311 303 308 303 302 299 302 304 302 302 300 297 297 297 297 302 302 300 298 299 299 299 288 292 295 297 297 300 300 300 299 298 298 298 298 298 299 299 299 300
317 317 318 318 319 320 321 321 320 319 318 318 318 317 317 317 318 319 321 321 322 322 321 322 321 315 314 304 310 318 321 321 317 316 317 316 315 319 316 319 319 313 319 315 312 312 315 308 312 307 310 303 300 306 302 301 303 295 300 299 293 292 292 298 300 298 297 299 298 299 290 291 295 296 298 298 300 299 298 298 298 298 298 298 299 298 299 299
318 318 318 318 319 321 321 321 320 319 319 317 317 317 317 317 319 320 321 321 321 322 321 321 320 320 306 305 315 318 327 323 314 316 319 314 314 315 314 316 314 314 311 310 313 312 310 316 312 303 300 305 305 301 297 298 298 297 294 291 295 292 295 297 300 298 296 296 299 297 290 293 295 296 298 299 299 300 298 298 298 298 298 298 298 298 298 299
318 318 318 318 318 320 320 321 320 319 318 317 317 317 318 319 319 321 321 320 322 321 321 319 322 314 304 303 314 326 322 310 312 317 315 319 320 317 314 312 311 310 310 308 314 309 309 310 304 304 301 303 300 296 295 296 296 297 293 293 293 294 295 295 297 299 301 297 298 296 291 295 295 297 298 299 299 299 298 298 298 298 298 298 297 298 298 298
319 319 318 318 318 319 320 320 320 319 318 318 317 317 318 319 320 320 321 321 319 320 319 316 313 312 300 312 316 311 310 315 318 320 317 317 317 314 310 310 308 307 311 308 311 312 309 306 306 303 304 298 299 299 292 290 291 293 295 291 296 293 294 292 296 298 300 297 293 296 292 294 295 296 298 298 299 298 297 298 298 298 296 297 297 297 298 298
319 319 319 319 319 320 320 321 320 319 318 318 316 317 317 320 322 320 319 319 321 321 319 320 313 312 305 306 302 306 314 312 319 316 317 314 314 312 310 307 307 306 307 305 309 304 306 301 302 297 299 298 297 295 289 287 292 291 293 291 293 295 296 294 292 295 297 297 294 294 293 295 295 296 296 298 299 298 297 298 298 297 297 297 297 296 297 297
319 319 319 320 320 320 320 320 320 319 318 318 319 320 320 320 318 319 318 316 313 308 303 303 306 293 293 305 309 311 317 315 316 316 309 313 316 312 312 311 311 305 303 300 301 303 304 303 304 297 293 295 295 296 294 296 298 295 295 295 294 291 292 293 295 297 297 294 293 294 293 294 296 295 296 297 298 298 297 297 297 297 296 296 296 296 296 296
319 319 319 320 320 320 320 320 320 319 319 316 316 317 317 313 313 309 312 313 307 306 304 307 308 307 306 308 308 310 314 319 308 313 313 315 310 308 307 307 310 306 301 297 300 300 304 295 292 291 295 298 299 299 299 299 299 297 298 296 294 293 294 297 296 298 297 295 293 294 294 295 296 296 296 297 297 296 296 296 296 295 295 295 295 296 296 296
319 319 319 320 320 319 320 321 320 319 318 317 316 314 308 304 302 298 307 308 311 310 308 309 308 306 306 310 309 308 304 305 311 310 311 313 310 307 303 304 301 297 299 302 301 302 303 294 294 298 299 300 300 301 300 299 298 296 296 294 292 295 292 297 296 296 297 295 292 294 294 295 296 298 297 297 295 295 296 296 295 295 295 295 295 295 295 295
319 319 320 320 320 320 320 321 321 319 318 317 315 311 312 310 312 308 307 302 310 311 310 309 310 309 308 311 311 314 312 304 306 309 314 311 306 302 302 302 299 296 300 301 300 296 294 292 297 300 302 302 301 300 299 298 297 297 293 292 291 292 296 298 295 296 296 295 290 294 293 294 296 297 297 296 296 296 297 297 296 296 295 295 295 295 295 295
319 319 320 320 320 320 321 322 320 319 315 313 310 311 312 315 319 319 313 307 304 311 310 309 307 307 307 310 310 311 304 302 300 306 307 310 304 303 302 299 298 299 300 300 295 294 291 295 299 302 301 300 298 298 298 298 298 294 292 290 289 295 292 290 293 295 294 293 292 293 292 294 297 299 299 297 297 296 297 298 298 297 295 295 295 295 295 295
318 318 319 320 320 320 321 321 320 316 314 313 312 312 317 319 320 318 312 301 300 306 310 311 310 309 307 304 309 307 304 304 305 304 311 307 302 304 302 300 298 298 297 299 298 296 294 299 303 302 300 299 297 297 295 293 292 294 294 292 292 294 294 293 292 293 295 294 295 292 291 292 294 295 296 293 294 294 295 295 294 294 296 296 296 296 296 295
318 318 319 319 319 320 320 320 314 312 315 314 312 316 318 320 321 320 309 302 302 303 317 313 315 312 311 316 311 305 305 306 306 309 309 308 304 302 301 304 300 296 298 299 298 297 297 301 303 300 299 298 297 295 295 295 290 292 295 295 295 295 294 294 297 294 291 289 293 292 283 284 294 295 296 291 291 291 292 292 292 293 292 292 292 293 294 296
318 318 319 319 320 320 320 311 311 314 313 310 313 317 318 319 319 318 308 298 291 302 306 301 313 306 315 304 308 306 305 300 307 309 309 309 310 305 303 300 301 295 298 298 298 297 297 301 300 299 298 297 297 295 297 296 291 290 292 298 297 296 295 295 294 292 284 282 291 294 285 283 291 293 293 291 291 291 291 291 292 292 292 292 292 293 292 293
318 318 319 319 320 320 311 307 316 315 308 310 316 319 320 320 323 317 300 293 288 302 299 311 307 306 317 306 306 307 293 296 307 308 307 312 306 308 299 298 299 300 301 302 297 293 298 296 297 299 298 296 294 292 297 296 292 289 296 299 298 297 295 294 295 292 289 294 295 292 291 284 285 291 295 292 291 291 289 290 291 292 292 291 292 293 292 292
318 318 318 319 320 318 313 315 314 310 310 312 318 318 320 320 321 315 301 283 283 306 300 298 308 312 311 306 308 302 301 304 300 302 303 309 306 303 300 298 297 297 298 298 288 298 297 294 296 296 295 293 293 297 299 298 294 293 296 299 296 297 296 295 293 289 289 287 283 287 292 284 283 290 296 293 290 290 289 289 290 291 291 291 292 292 292 293
318 318 318 319 320 319 319 317 313 310 314 314 316 318 319 319 312 302 293 282 304 302 314 301 313 310 305 306 303 303 301 302 298 299 305 305 305 302 296 299 299 298 300 299 293 297 298 297 298 299 295 293 296 294 298 299 294 296 298 297 296 297 295 296 290 288 287 286 283 286 290 283 285 291 290 291 291 291 292 291 291 292 291 291 291 292 292 292
319 319 319 319 319 316 316 319 315 318 316 317 316 316 316 312 304 291 286 280 305 294 303 302 303 299 303 299 299 302 299 298 299 299 302 300 303 305 300 304 300 298 297 299 297 298 297 296 297 298 296 299 293 293 294 297 297 298 297 295 293 292 290 289 289 287 285 282 284 290 291 288 282 289 290 289 291 293 293 291 292 292 291 291 291 291 291 292
319 319 319 318 314 314 315 310 316 316 316 314 314 313 310 306 294 288 281 291 301 301 300 299 298 303 298 297 294 299 300 297 297 299 296 300 297 299 300 297 303 296 292 292 291 296 296 297 297 297 298 297 297 293 295 296 297 297 293 289 290 287 287 285 285 286 280 281 284 290 291 291 281 282 292 292 293 294 294 291 291 291 290 291 291 291 291 291
318 319 320 318 319 318 311 309 315 315 313 313 312 307 303 289 294 284 285 302 291 296 295 295 300 299 298 300 298 295 295 296 297 297 294 294 293 293 294 291 293 286 286 287 288 292 291 292 296 296 298 297 295 292 291 294 294 294 291 289 284 282 282 278 282 278 280 280 282 284 288 286 287 291 292 292 293 293 294 295 293 291 291 290 290 291 291 291
318 318 318 319 317 315 316 318 316 314 313 312 309 306 296 287 281 289 291 296 292 301 298 302 297 298 298 298 297 297 299 293 297 296 298 297 294 294 297 296 297 293 286 289 288 287 289 295 296 295 296 297 298 290 285 285 288 291 289 286 283 281 280 279 280 281 281 283 282 284 287 282 286 290 297 297 292 293 293 294 295 293 291 290 290 290 291 290
318 318 316 317 318 318 318 316 315 314 312 310 306 299 294 284 284 295 293 295 297 300 302 300 299 300 299 295 298 297 292 298 295 295 297 293 293 290 293 296 297 295 295 290 286 287 283 284 291 292 288 297 297 296 294 291 289 291 293 291 287 285 281 279 281 279 281 280 281 284 282 280 282 286 288 289 289 290 291 293 294 293 292 291 291 290 290 290
318 318 318 317 317 318 316 315 315 315 311 307 300 294 285 284 290 290 291 295 299 299 298 302 298 297 296 298 300 298 299 292 296 295 294 293 290 292 292 293 296 298 296 289 291 287 289 289 295 298 296 297 295 298 299 294 289 290 293 294 288 286 288 284 282 281 279 279 277 279 281 283 287 289 289 289 289 290 291 292 292 291 291 291 290 290 290 290
316 315 317 314 313 317 316 315 315 314 310 303 295 287 285 289 287 294 293 301 300 297 297 299 299 295 294 295 297 297 302 296 295 295 293 294 295 293 297 297 295 298 295 290 292 285 288 287 292 295 296 295 295 298 298 298 284 288 291 287 289 293 292 284 280 281 280 279 278 282 282 285 290 288 288 288 288 288 289 291 290 290 290 290 289 289 289 290
313 315 310 313 314 318 316 315 315 312 308 301 293 285 291 292 300 298 300 298 299 300 297 291 293 293 292 292 292 295 296 299 294 293 289 295 292 296 296 298 300 298 300 297 293 297 288 289 290 292 290 293 292 293 297 295 296 291 284 289 293 295 293 286 281 281 279 279 280 282 281 281 283 283 287 286 286 286 288 288 290 290 290 289 289 290 290 290
312 312 311 312 315 318 317 315 314 310 304 298 289 291 296 292 300 300 304 303 301 300 295 293 294 298 293 294 292 294 297 293 292 293 290 294 289 300 297 297 301 300 300 302 294 295 297 287 288 292 292 292 293 295 294 296 294 291 288 295 290 282 282 285 283 279 278 278 278 280 282 283 285 287 284 286 286 286 287 288 289 289 289 289 289 290 290 290
312 310 303 311 318 318 315 315 312 306 300 292 288 288 295 295 300 300 304 304 306 300 294 295 293 297 296 294 296 296 295 290 293 291 289 292 288 298 297 299 298 301 301 301 297 297 297 288 286 289 291 291 291 291 285 287 293 294 293 289 294 286 284 283 285 282 283 279 276 277 281 280 288 290 288 289 289 289 288 288 289 289 289 290 290 290 290 289
308 304 302 315 318 318 316 313 307 302 297 287 289 289 299 295 299 301 304 304 300 299 296 296 298 295 296 296 298 294 296 295 293 292 293 294 293 300 298 301 299 299 301 302 298 300 291 293 285 284 291 291 283 287 287 289 286 284 285 284 287 285 287 286 286 284 281 278 278 278 277 281 288 292 292 292 292 291 290 289 289 290 290 290 290 290 290 290
310 304 305 316 317 317 314 307 299 295 293 294 295 293 296 296 299 301 304 306 303 305 301 298 298 295 296 295 295 298 294 295 294 292 293 294 294 288 299 300 301 299 301 299 298 297 288 287 287 284 283 283 287 293 293 293 293 290 289 287 290 287 284 281 280 287 284 281 279 279 280 282 290 291 291 290 294 293 292 290 290 290 290 291 291 291 291 291
305 296 302 316 317 315 306 296 296 299 294 290 290 295 294 302 301 299 302 304 303 300 303 300 300 298 297 298 298 296 294 293 294 293 293 292 296 296 300 300 302 302 298 293 294 300 296 290 289 283 284 286 291 292 293 292 292 292 291 289 292 290 286 283 279 281 282 284 283 280 277 281 287 288 288 289 290 292 292 291 291 291 291 291 292 292 292 292
301 300 312 315 315 311 303 295 297 295 290 292 299 298 300 299 298 301 299 302 299 302 300 297 298 298 299 298 297 295 296 291 295 293 295 294 296 299 298 299 303 301 300 293 298 292 294 288 287 287 290 290 291 293 293 292 293 289 289 289 289 288 289 288 285 284 283 281 281 279 278 282 287 286 287 288 288 289 292 293 292 291 291 291 292 292 292 291
302 303 304 313 314 310 299 289 289 291 291 296 295 296 300 299 299 298 298 300 299 299 297 297 300 301 297 299 297 293 297 288 293 295 293 296 291 296 296 298 300 294 297 294 293 297 290 287 288 284 283 284 286 288 288 290 289 285 285 290 291 292 290 285 284 285 282 283 283 281 278 282 286 284 288 288 288 288 291 292 293 292 291 292 292 292 292 291
301 301 303 305 311 308 296 297 293 290 289 291 292 291 294 296 299 299 299 299 302 300 298 296 299 300 298 298 296 296 297 294 290 290 293 291 293 293 291 296 297 296 296 296 296 300 292 288 288 284 281 279 278 279 281 283 285 287 286 288 290 290 288 286 284 284 281 284 285 283 282 285 286 285 287 287 288 288 288 289 291 292 292 292 291 292 291 291
297 291 298 299 304 303 303 304 298 294 290 290 290 292 294 292 297 300 301 299 302 301 300 299 300 301 297 295 294 293 293 297 293 288 290 289 291 292 293 294 295 297 294 295 294 297 288 290 291 290 287 285 287 284 288 289 285 284 286 287 288 290 290 288 287 284 283 283 283 287 285 282 284 285 285 283 285 287 287 288 289 291 291 291 291 291 290 290
300 294 294 291 299 299 296 301 298 296 292 294 287 292 290 292 295 297 301 294 300 300 300 299 297 296 295 295 294 293 295 294 295 292 290 290 289 289 293 292 294 293 293 293 295 291 287 287 289 290 289 290 285 284 290 290 286 287 286 286 288 288 289 288 286 285 287 284 282 288 287 284 285 286 287 287 288 288 289 289 289 289 290 291 290 289 290 288
291 294 301 301 295 288 292 293 299 296 297 295 291 295 291 291 292 291 297 298 299 301 296 296 298 298 297 295 295 290 292 293 292 289 293 290 286 289 288 292 291 293 293 293 294 292 287 286 290 289 289 291 288 290 289 289 289 288 288 287 286 288 288 287 287 289 288 286 284 286 288 287 287 288 289 290 290 290 291 289 290 291 290 289 288 288 288 287
295 293 294 300 293 294 295 297 298 297 296 295 293 294 292 292 291 294 295 295 296 296 298 290 294 297 297 298 296 291 291 288 288 292 290 289 288 286 287 289 291 292 291 289 290 289 289 287 288 289 288 289 288 287 288 286 285 285 287 288 289 288 288 288 289 290 289 287 288 287 287 288 290 290 290 291 292 292 291 291 290 289 289 289 289 288 287 287
289 291 289 294 293 291 293 295 295 295 293 296 291 293 294 293 292 294 297 296 290 294 299 294 295 296 297 297 296 292 293 295 293 289 292 291 287 289 289 289 286 287 289 288 289 289 291 287 290 287 287 287 287 286 287 287 286 284 286 287 289 289 289 289 289 289 289 288 288 287 286 286 291 293 292 289 289 291 290 289 289 289 288 288 288 288 287 287
295 292 295 290 289 289 290 291 293 291 290 289 290 291 294 295 294 296 295 299 296 293 296 294 296 295 294 296 296 295 298 296 295 294 293 292 290 292 290 288 291 286 287 288 288 288 290 285 286 287 284 285 286 286 284 285 285 285 285 286 286 287 286 288 287 289 287 287 287 286 285 287 290 293 289 289 290 291 290 289 288 288 288 287 287 287 287 286
295 296 295 294 288 293 289 289 289 291 288 290 291 291 292 293 296 297 293 295 296 298 298 298 298 296 292 293 293 296 299 298 295 295 297 298 298 294 294 292 293 290 287 288 289 288 288 286 284 285 283 284 283 285 284 284 285 283 285 287 287 288 290 290 290 289 290 290 286 285 286 289 291 291 290 289 290 290 290 289 287 287 287 287 287 287 287 286
Wind_Speed
2 1 1 1 2 2 2 2 3 4 4 5 6 6 7 8 8 8 9 9 9 10 11 12 11 12 12 12 12 13 15 5 3 6 2 2 2 2 2 3 2 3 2 4 5 5 4 2 1 0 2 1 0 1 1 0 1 0 0 1 3 2 3 0 2 3 5 4 4 3 2 1 4 2 2 1 1 3 1 9 6 9 9 5 4 3 3 4
1 1 0 0 1 1 2 3 3 3 4 5 6 6 6 7 8 9 10 9 10 10 11 11 12 12 12 12 12 14 11 4 5 2 4 2 1 3 2 1 2 2 2 3 3 4 6 1 1 3 3 0 1 0 1 0 1 0 3 1 1 4 0 4 3 5 1 4 3 5 2 1 3 0 1 1 3 5 3 7 6 8 7 6 5 4 4 5
1 1 0 1 1 2 3 4 4 4 4 4 5 6 7 8 8 9 10 9 10 11 11 12 12 12 13 12 12 14 7 2 3 2 2 4 3 3 3 2 1 1 1 4 5 5 4 5 4 3 3 1 0 1 1 0 1 0 1 2 3 1 3 3 4 4 5 2 3 3 3 1 3 0 0 2 3 2 2 5 5 6 6 5 4 4 4 5
2 1 1 1 1 2 3 4 5 5 5 5 6 6 7 8 8 9 10 10 11 11 12 12 13 13 12 12 11 9 3 3 1 3 2 5 4 3 3 3 4 4 5 6 3 5 3 3 3 2 2 2 2 1 1 1 1 1 1 2 1 2 1 2 5 4 4 6 3 2 2 1 1 2 0 2 3 1 6 5 4 5 4 4 4 4 4 5
2 2 1 1 1 2 3 4 4 5 5 6 7 7 7 8 9 9 10 11 11 12 13 13 14 14 14 12 13 5 2 2 2 2 3 4 2 2 2 2 3 4 5 5 5 3 3 5 2 3 0 1 3 1 2 1 1 2 1 2 2 1 1 3 6 6 3 3 2 1 1 0 1 1 3 2 3 1 1 2 4 5 4 4 3 3 4 5
3 3 2 1 2 3 3 4 5 5 6 6 6 7 8 8 8 9 10 11 12 13 14 14 15 15 14 14 7 3 2 1 3 3 3 5 1 2 1 2 5 4 5 5 2 3 4 3 2 2 2 2 2 1 1 2 0 1 0 2 3 3 1 2 3 3 1 1 1 1 1 2 1 2 3 1 1 4 3 4 4 5 4 3 3 3 5 4
4 3 3 2 2 4 4 3 4 5 5 6 6 7 7 8 9 10 11 12 13 14 14 14 15 15 16 15 3 3 3 1 2 1 1 3 1 2 1 3 4 3 3 4 2 2 1 5 2 2 3 3 1 1 3 1 0 1 1 1 3 2 2 1 3 3 0 2 1 0 1 1 2 4 1 3 4 7 5 4 4 4 3 3 4 5 5 4
5 5 4 4 4 4 4 4 3 4 5 6 6 8 9 9 10 11 12 13 14 13 14 15 14 14 15 5 1 1 3 2 2 3 1 3 4 3 3 2 2 2 2 2 4 3 4 4 4 3 2 2 1 2 1 2 2 2 0 3 2 2 2 2 4 2 1 2 3 2 1 4 3 2 1 5 7 6 6 4 4 4 4 4 4 4 4 4
6 6 6 4 4 3 3 2 3 4 6 6 7 8 9 10 11 11 12 12 14 13 13 14 14 13 11 2 2 3 0 1 2 2 5 4 3 2 3 1 2 2 2 2 1 3 2 2 3 5 3 5 3 2 2 2 0 3 3 2 2 1 2 3 3 3 4 2 2 2 4 4 6 5 1 9 7 7 6 4 4 4 4 4 3 4 4 4
7 7 6 5 5 5 7 5 4 6 6 6 7 8 9 10 10 11 12 13 13 13 13 13 13 14 6 2 2 2 1 2 2 1 2 3 3 2 1 3 0 2 2 2 1 3 1 3 3 4 3 3 0 1 1 0 0 2 3 3 4 5 3 3 4 4 6 4 5 4 3 5 2 4 3 3 8 7 5 5 4 4 4 3 3 3 3 4
9 8 8 7 7 8 8 6 5 5 7 7 7 7 8 9 9 10 11 12 13 13 12 11 11 11 3 3 2 3 1 2 0 2 2 0 3 2 1 2 2 2 3 1 2 4 3 4 3 2 0 1 2 2 1 2 1 1 1 4 6 8 7 4 4 6 1 2 5 4 5 1 1 2 4 8 7 7 7 6 5 4 4 4 4 3 3 4
10 9 9 8 8 9 9 7 6 4 6 6 7 7 8 8 9 10 11 12 13 12 11 10 10 4 4 3 3 2 3 1 1 2 1 1 2 2 2 3 2 3 3 2 1 3 3 3 4 1 1 3 1 1 2 0 1 0 2 3 4 4 5 8 8 6 5 1 2 4 3 4 5 5 5 9 7 6 7 6 5 5 4 4 3 4 3 4
10 9 9 9 8 8 9 8 5 5 4 3 4 7 7 8 8 10 11 12 10 12 11 10 7 3 3 3 2 1 3 2 1 3 2 2 3 2 2 1 2 1 3 2 3 2 2 2 2 4 1 0 3 0 1 1 2 1 3 3 5 4 7 8 8 3 4 2 5 4 2 7 11 5 6 7 8 6 6 5 4 4 4 4 4 3 4 2
9 10 9 9 8 7 8 8 5 4 4 4 5 7 8 8 9 9 11 11 12 10 8 9 3 3 2 2 1 1 1 1 3 4 3 3 5 1 2 0 0 0 1 1 2 1 1 1 2 2 0 1 0 1 1 1 1 2 2 4 2 2 2 2 4 6 3 2 5 3 3 4 6 5 5 6 6 7 6 6 5 4 5 4 3 4 3 4
9 9 10 9 8 5 5 7 5 4 4 4 5 7 8 8 9 10 11 10 8 7 10 8 3 2 3 1 2 2 4 4 3 3 3 5 4 2 2 2 2 1 2 2 1 0 1 0 1 1 1 1 1 1 2 3 4 3 1 3 2 4 0 2 4 8 6 1 3 3 2 6 6 5 6 6 7 6 6 6 5 5 4 5 4 3 5 4
10 10 10 9 8 6 5 5 6 5 3 5 6 5 7 9 10 11 10 8 10 9 5 2 3 2 3 5 1 2 1 3 3 5 3 3 3 1 4 3 3 3 3 2 0 1 1 2 2 1 2 1 1 2 3 3 3 4 6 3 4 3 3 1 4 4 2 4 2 7 3 4 0 5 6 5 7 7 5 7 7 6 6 5 4 4 5 5
11 11 11 10 9 8 5 5 6 4 4 6 6 6 8 10 10 8 9 8 5 3 2 2 1 4 4 1 3 3 4 2 1 2 2 1 1 5 4 4 2 3 2 2 1 1 1 2 1 1 1 3 2 3 1 3 4 4 4 5 4 5 2 3 1 3 3 4 4 6 5 7 2 8 7 7 8 8 6 7 7 6 5 5 4 4 5 5
12 12 11 11 10 8 7 5 7 6 6 7 4 5 7 9 10 9 6 4 4 2 4 4 3 2 6 4 4 3 4 5 2 4 3 1 2 2 3 3 3 4 4 3 1 2 2 1 2 2 1 4 3 4 4 6 5 4 2 3 5 5 7 5 3 5 4 4 3 5 9 9 4 6 8 9 8 9 8 7 8 7 6 5 4 5 4 4
13 12 10 10 9 10 7 6 8 7 7 6 6 8 10 9 4 4 3 3 3 2 0 4 4 5 3 6 4 6 3 3 5 4 2 2 1 2 2 1 3 6 3 3 3 4 2 1 2 1 4 5 7 7 8 7 4 6 5 1 3 3 4 3 2 4 5 5 5 5 6 6 4 8 5 6 7 8 7 5 6 6 6 5 5 4 4 4
13 13 12 10 11 10 8 8 10 9 6 4 4 4 2 1 1 2 3 6 7 6 2 6 11 2 5 8 5 2 4 2 3 3 4 3 4 4 3 3 2 3 2 3 4 5 5 4 5 6 8 8 7 8 9 8 6 6 1 2 5 5 4 5 3 0 1 1 6 6 5 6 8 5 11 9 6 5 5 6 6 6 6 6 5 5 5 5
12 13 13 12 12 12 9 10 10 9 6 3 5 2 2 2 3 3 4 8 11 10 11 4 12 10 4 6 5 8 6 2 2 3 4 3 3 7 5 4 4 4 4 4 5 1 1 5 8 9 9 7 7 7 9 9 7 4 3 4 5 2 7 4 2 3 1 0 2 3 5 7 6 6 6 6 7 9 9 8 8 7 6 6 6 6 5 6
13 13 13 14 12 11 11 11 12 8 4 3 3 3 3 2 1 1 1 4 7 16 13 13 7 5 2 4 7 4 2 4 2 5 2 3 6 7 6 6 7 6 5 5 4 2 4 10 8 10 8 6 7 1 3 3 4 4 4 3 4 5 4 7 4 2 1 1 5 7 9 8 8 6 3 13 12 10 11 9 8 8 7 6 5 6 6 7
14 13 14 13 12 12 12 9 10 9 4 3 4 4 3 2 1 0 1 4 7 6 12 10 11 12 5 5 4 2 5 6 6 8 7 4 6 6 8 7 7 6 6 9 7 4 6 7 11 9 7 8 5 2 1 1 1 2 2 3 6 3 3 3 3 1 3 2 2 3 8 8 7 9 11 10 9 2 3 3 3 5 8 6 7 7 8 7
14 14 13 13 12 12 10 10 9 5 5 6 5 5 4 1 1 3 2 3 5 6 10 12 14 11 12 9 7 8 10 5 6 10 7 7 10 4 4 9 8 7 8 9 11 10 11 3 3 11 9 7 6 4 3 3 5 4 6 5 4 4 6 7 3 4 4 4 3 4 7 9 8 12 10 3 5 5 2 4 3 4 3 4 5 6 7 8
14 15 14 13 12 10 8 11 5 5 6 6 9 7 5 3 2 2 1 3 5 6 2 8 6 5 6 4 10 8 7 5 8 6 11 12 8 3 5 4 4 8 8 8 10 11 13 8 1 5 8 6 5 5 6 4 5 5 6 9 7 6 6 5 2 4 2 3 4 4 4 3 7 14 12 5 3 3 4 4 5 4 3 4 5 5 4 6
15 15 15 14 12 9 12 7 5 6 7 7 2 3 6 3 4 1 1 2 8 3 3 7 4 6 7 4 6 5 4 9 6 6 12 10 6 5 3 6 4 7 8 7 10 6 5 2 7 6 5 5 5 5 4 8 6 4 3 5 11 7 5 2 4 2 3 2 1 1 4 7 3 5 1 5 7 6 4 7 6 7 6 5 5 6 4 5
16 16 15 14 12 14 9 4 8 8 6 7 5 3 2 3 1 1 1 1 9 6 8 0 5 2 2 11 11 8 1 5 6 9 7 2 8 1 6 6 3 2 2 1 1 6 4 3 2 4 5 5 5 6 4 9 4 4 1 3 2 1 1 1 1 3 4 2 2 3 3 7 11 7 5 7 7 7 6 7 7 8 8 8 6 7 7 6
18 17 16 15 15 17 3 3 8 10 6 1 1 4 2 1 1 1 1 2 6 5 5 3 1 4 1 11 12 11 1 13 5 4 4 1 1 1 4 8 9 8 4 3 11 1 5 6 6 5 5 5 8 6 4 8 5 2 1 3 2 2 0 0 1 3 3 3 5 4 2 3 6 3 10 10 5 7 11 10 10 9 8 8 7 8 8 8
20 19 18 16 16 20 9 3 7 9 4 2 3 1 4 4 1 1 2 6 1 2 4 5 4 1 6 10 11 4 5 3 1 3 2 2 4 1 7 9 4 5 8 10 9 1 2 1 5 9 7 8 3 2 2 7 7 0 2 5 4 3 1 1 1 1 2 2 9 5 5 5 14 4 3 5 5 10 9 11 11 11 10 9 8 7 7 7
20 20 19 17 13 14 10 3 5 3 8 5 4 5 4 3 3 3 5 9 1 3 2 2 2 10 10 13 9 5 4 3 3 2 2 3 2 2 2 2 1 2 3 8 10 0 2 3 2 0 4 2 5 2 4 3 4 5 4 4 2 2 1 1 1 0 2 8 9 6 8 6 9 2 9 8 7 8 3 4 5 8 8 8 7 8 8 7
21 21 20 19 14 8 6 8 6 6 8 7 6 5 5 1 3 7 11 7 5 1 2 3 5 10 13 13 9 5 4 5 4 6 4 1 1 2 1 2 1 2 1 2 4 2 2 2 0 0 3 4 4 3 5 2 3 6 2 3 2 0 3 0 1 2 2 11 4 12 10 11 10 3 1 1 3 2 9 10 12 11 12 11 9 9 8 8
21 22 22 17 10 9 14 11 11 7 9 9 8 6 5 5 4 7 7 5 2 5 9 5 5 10 14 11 11 14 12 6 7 7 10 8 7 10 11 10 8 5 6 7 8 2 6 5 2 3 6 5 3 6 2 2 1 2 4 4 7 2 2 2 3 4 8 10 1 1 4 6 16 9 2 4 3 1 2 8 13 13 12 11 9 10 8 8
23 22 24 18 13 11 10 7 11 9 11 9 8 4 5 6 9 10 7 6 4 3 2 7 10 12 13 10 8 7 5 7 7 6 5 3 6 8 6 7 7 7 4 6 6 3 5 5 8 4 2 5 7 9 3 0 6 6 7 8 6 3 4 7 4 3 4 2 2 1 1 4 2 5 15 12 3 2 1 1 11 14 14 12 11 10 9 9
24 23 16 17 16 13 9 13 11 15 12 8 8 5 2 6 10 12 16 12 3 2 5 2 8 7 13 9 7 12 6 1 10 6 8 5 6 7 8 10 8 9 0 2 8 8 3 2 8 9 6 8 11 13 13 6 9 11 5 10 9 8 3 4 5 8 5 2 0 3 3 6 5 7 5 5 4 3 3 3 8 9 10 10 9 9 9 9
24 22 18 14 15 11 11 13 15 16 11 9 10 11 16 14 8 11 16 13 3 2 2 4 8 8 8 6 3 8 3 2 6 7 7 8 10 9 10 12 15 6 2 2 4 2 13 8 2 16 0 13 14 8 5 6 4 5 6 3 6 10 1 6 0 0 1 1 1 2 5 2 5 1 3 3 4 3 2 5 9 9 9 10 10 10 10 9
12 7 10 6 9 10 13 12 14 17 14 12 13 11 15 14 10 7 4 9 8 4 7 5 5 7 6 5 2 8 1 3 8 5 5 10 6 7 8 4 11 15 10 12 4 4 2 7 2 3 2 12 10 5 6 9 6 5 6 10 6 1 5 1 1 1 1 2 8 4 5 6 1 0 3 4 4 3 0 4 8 8 9 10 9 9 9 9
9 6 7 9 12 13 15 13 14 15 12 13 14 12 13 7 2 3 4 13 15 7 7 7 7 8 7 7 5 8 3 4 6 6 5 4 6 11 6 8 11 15 15 9 3 3 7 2 2 3 4 1 1 3 1 3 0 7 5 6 3 4 3 2 5 0 3 7 6 8 9 4 3 8 4 4 4 4 5 4 7 8 10 11 10 10 11 10
5 4 7 12 15 16 14 14 14 12 13 14 16 16 3 10 7 5 2 3 9 11 7 9 3 10 6 8 7 10 5 8 9 6 4 11 5 8 13 5 11 15 19 12 5 2 4 5 3 2 3 2 3 1 1 2 4 2 4 2 9 3 3 4 2 7 4 7 4 4 8 7 12 9 3 6 9 9 10 7 8 11 11 11 9 9 9 8
4 3 4 12 11 17 16 16 14 13 13 14 11 13 8 11 5 8 4 5 1 8 11 10 8 6 9 9 6 12 13 9 10 10 5 6 7 7 14 10 8 15 15 13 9 5 2 7 1 3 1 1 1 3 9 5 1 1 0 2 2 2 3 7 9 0 3 6 1 5 6 8 8 6 13 13 15 14 12 11 12 13 12 11 10 11 12 12
7 4 8 8 17 16 15 17 13 12 12 17 15 13 1 8 9 13 9 6 2 6 8 7 10 7 11 12 8 6 11 12 13 9 8 4 7 5 12 13 7 12 16 17 11 6 4 3 7 1 3 5 2 5 9 13 12 3 1 4 1 2 1 2 1 5 4 2 5 5 6 4 2 1 11 13 14 14 17 17 13 12 12 11 11 12 12 12
7 3 2 11 18 17 14 12 13 17 14 10 9 8 7 6 6 9 13 7 2 4 0 3 6 12 7 7 12 7 6 9 8 9 9 5 11 3 7 12 8 10 9 10 11 4 2 4 10 4 1 7 4 6 12 12 15 15 15 15 15 11 6 5 8 3 3 2 6 3 13 1 1 2 1 4 8 14 15 15 14 11 12 12 11 11 12 12
4 10 8 13 18 21 15 12 5 6 6 12 15 12 7 2 1 11 9 9 7 3 3 1 1 1 1 3 1 4 5 8 8 7 6 11 7 9 1 2 10 10 13 10 14 12 6 2 3 5 7 7 5 1 1 2 2 4 7 7 8 6 5 5 6 6 2 7 2 1 3 7 2 2 3 3 4 6 9 9 10 10 12 11 11 11 10 10
3 4 3 20 19 22 16 13 9 7 5 7 3 2 3 2 4 2 9 8 8 7 1 2 4 2 4 4 1 1 7 5 10 11 6 8 4 0 4 6 2 11 8 0 1 2 9 3 5 1 3 2 1 1 1 0 0 3 5 3 5 12 12 11 4 2 7 3 3 2 5 4 1 2 2 3 3 4 7 10 11 9 9 10 10 10 11 10
3 1 2 7 20 18 14 11 11 10 9 2 8 7 5 6 5 6 9 10 8 6 10 6 2 9 3 2 1 2 3 1 4 8 6 3 3 2 6 4 6 5 10 6 9 7 5 4 5 2 1 0 1 0 2 1 1 3 3 8 10 7 7 2 3 1 1 10 8 8 16 1 1 0 1 0 1 4 6 6 10 11 8 9 9 8 8 9
3 2 0 3 12 13 13 10 11 11 11 9 11 14 8 8 8 12 8 8 10 7 4 9 11 2 4 2 1 1 3 8 1 2 1 2 1 1 4 4 5 0 3 5 2 5 5 5 10 10 13 11 9 10 12 11 14 5 5 6 9 12 11 7 9 6 8 5 12 9 9 1 1 1 2 1 3 3 1 3 5 6 9 10 9 10 11 11
6 7 3 2 5 8 11 9 12 13 11 11 10 12 14 12 7 10 10 10 7 7 9 1 1 7 4 3 6 7 9 4 7 2 2 4 2 1 1 3 3 1 2 3 5 1 1 2 12 16 15 15 11 0 2 9 5 10 13 15 18 14 10 9 5 5 16 3 10 15 7 3 3 3 4 4 4 6 6 5 6 8 6 7 7 8 8 9
1 9 6 5 1 10 4 6 12 12 14 15 9 7 14 19 10 5 14 7 13 12 7 9 3 7 10 12 13 12 12 7 6 5 10 6 1 0 0 1 2 2 4 3 6 4 2 4 12 14 12 8 3 4 3 8 13 15 11 16 15 16 15 15 14 19 6 6 16 8 7 7 8 5 6 6 6 5 7 6 6 5 7 9 8 6 7 6
5 3 6 2 5 3 9 7 10 16 14 18 11 8 12 16 14 9 8 16 5 10 8 3 11 16 15 16 13 8 8 12 10 12 15 3 3 0 1 2 3 2 6 3 1 2 3 7 10 6 13 8 1 1 2 2 5 8 15 16 18 17 16 19 22 13 10 15 15 7 13 11 8 9 8 9 10 10 11 11 11 9 7 6 8 9 10 10
1 3 2 1 4 3 10 2 5 11 16 17 9 14 12 16 18 17 10 8 10 7 16 11 17 21 17 13 11 9 10 6 12 16 7 8 9 5 3 0 3 4 2 2 2 2 2 8 5 5 12 9 5 3 1 1 2 3 7 15 18 20 22 23 20 18 16 10 7 5 7 11 4 8 9 7 9 7 4 6 6 8 10 9 9 9 10 11
4 3 3 2 2 1 1 4 5 6 9 15 13 15 14 17 19 13 8 9 6 12 11 18 19 16 16 15 14 13 16 21 18 10 10 9 3 6 8 6 4 1 3 6 4 3 8 7 7 3 6 11 6 2 0 0 0 3 6 5 12 17 17 17 17 14 9 11 9 1 4 8 3 4 6 2 4 7 7 7 8 7 8 9 9 10 10 11
2 2 1 3 5 3 2 2 5 8 6 3 6 5 12 15 17 14 12 13 15 12 14 22 24 17 9 15 17 20 21 16 13 12 8 15 15 12 10 5 11 7 5 4 3 2 6 4 3 3 7 9 5 7 3 1 1 3 9 14 9 9 13 14 16 11 10 17 13 5 9 13 3 5 4 4 5 7 8 6 6 6 8 9 11 11 11 10
1 1 2 1 2 4 7 3 1 5 10 8 8 6 3 10 5 5 6 3 6 5 4 15 17 11 9 13 20 25 21 9 6 3 6 10 1 3 6 4 11 12 9 8 2 6 7 5 6 6 9 11 2 6 7 5 1 7 20 22 8 5 6 9 6 7 15 11 7 12 17 2 6 5 7 2 4 5 5 6 5 5 7 10 12 12 11 9
Wind_Direction
145 111 60 53 48 15 14 18 22 357 354 357 351 351 353 352 353 351 353 349 344 342 339 336 336 333 330 331 329 322 323 294 255 245 219 78 329 320 319 294 338 305 327 308 278 253 267 190 264 70 259 178 291 5 276 271 6 317 228 214 257 178 78 103 8 80 157 119 147 139 26 332 131 182 103 87 215 225 257 94 91 76 71 94 96 61 59 53
191 197 313 345 12 5 351 352 1 5 357 353 352 349 349 349 349 348 348 346 346 339 335 335 333 333 330 329 330 327 326 293 294 61 46 19 307 355 351 359 324 35 304 273 322 343 326 6 62 293 274 227 275 113 256 337 101 313 289 314 15 17 251 347 72 67 317 115 112 98 43 354 69 313 97 295 209 183 221 111 121 102 109 92 71 50 52 57
230 245 255 300 358 356 1 349 349 353 353 351 357 350 347 348 346 346 343 343 341 337 334 333 334 331 330 331 329 326 323 290 263 116 53 9 19 19 24 25 331 87 288 331 334 323 351 333 328 326 287 352 183 112 253 274 0 118 77 315 47 55 61 38 54 87 30 47 137 136 93 344 107 1 111 220 306 310 11 129 137 119 103 76 70 47 51 50
244 247 260 309 22 359 353 349 352 343 346 354 353 351 348 345 344 344 342 339 339 338 336 335 332 332 329 325 327 317 281 279 242 102 77 6 16 34 23 20 339 277 260 268 316 312 332 279 286 288 299 249 126 196 218 45 20 10 310 4 94 53 127 66 69 68 55 10 38 36 71 270 121 95 37 310 339 320 98 33 37 84 78 76 75 63 45 54
246 217 237 256 331 356 348 350 353 348 344 347 353 348 343 341 343 340 340 339 337 337 338 334 334 331 328 323 317 292 305 254 88 51 356 341 20 64 33 356 328 307 297 312 289 255 297 311 311 296 328 261 116 239 81 99 83 326 67 113 74 315 30 96 71 41 69 34 9 46 305 352 47 220 194 229 228 115 60 58 63 73 67 67 56 69 62 52
234 225 218 261 319 339 333 345 350 347 342 342 343 347 337 338 342 339 339 340 338 337 337 336 333 332 325 318 309 258 275 3 196 162 348 307 92 81 21 303 306 310 296 275 304 329 299 250 259 251 233 254 146 89 36 59 1 326 108 62 31 48 14 91 97 50 348 95 268 255 352 32 316 312 283 192 36 126 75 88 92 82 80 88 78 60 67 57
241 244 265 268 304 321 325 335 340 338 341 337 335 338 338 337 339 342 339 339 338 336 335 335 333 331 327 310 230 255 258 82 80 250 199 297 121 113 247 262 253 286 282 285 274 315 1 305 283 273 320 294 118 91 92 60 276 182 292 132 81 8 12 99 87 116 2 349 253 23 358 298 306 273 26 104 110 106 111 103 96 98 92 87 79 71 75 69
234 246 260 271 254 303 305 304 311 324 334 338 339 339 339 339 340 339 340 336 335 334 332 332 331 329 342 333 255 223 228 121 78 149 225 220 181 169 218 240 258 309 286 314 341 320 356 286 286 14 254 297 43 347 77 300 203 271 294 62 65 6 296 102 116 182 206 233 291 71 328 254 229 250 154 121 128 128 117 117 106 117 102 82 77 80 80 73
232 239 247 262 247 246 259 282 328 343 339 338 341 340 340 341 336 335 334 333 330 328 328 327 326 332 316 270 261 307 219 95 32 106 174 186 116 118 294 208 203 267 312 312 317 299 339 347 331 32 7 350 31 337 105 48 53 11 55 308 131 217 216 198 164 194 197 218 201 252 246 255 253 75 285 125 122 124 125 112 136 121 116 102 95 77 79 75
236 238 238 249 254 265 261 261 307 340 341 342 342 341 338 337 332 328 329 327 324 325 323 324 328 327 320 230 275 258 159 277 164 126 75 130 152 129 254 1 266 282 280 68 307 266 303 6 2 322 26 272 169 1 66 235 139 271 12 341 307 278 275 171 223 222 197 204 172 209 233 260 126 118 225 112 131 132 137 136 142 139 110 112 100 82 68 76
234 234 235 232 229 251 263 262 273 334 342 339 337 335 334 329 327 324 322 323 323 318 320 321 333 331 299 290 271 252 194 223 178 121 103 272 155 177 34 44 359 298 303 106 290 7 16 334 9 325 56 25 295 105 10 79 258 28 21 298 263 248 244 239 211 240 165 226 184 188 247 261 136 94 237 143 142 148 141 148 151 136 130 110 105 95 85 71
232 235 236 231 230 242 259 270 262 309 331 327 330 331 324 323 318 320 318 320 316 315 317 322 329 307 287 287 235 248 223 48 176 136 149 229 78 67 38 30 357 8 325 316 94 58 36 347 327 305 1 347 87 182 87 319 328 30 270 299 291 285 233 205 214 212 187 250 139 173 270 239 176 226 114 134 146 162 146 148 152 133 123 115 109 104 72 83
234 234 233 237 242 244 248 263 269 295 298 312 318 323 317 314 314 312 314 314 316 317 316 317 318 273 309 245 205 40 277 157 118 126 97 80 99 79 82 60 348 8 32 341 35 39 7 333 316 291 23 355 321 46 154 286 200 292 246 226 297 269 257 219 178 123 135 159 172 114 281 242 209 135 135 134 158 163 144 152 153 138 136 139 135 121 102 65
220 232 236 243 255 266 247 253 250 264 291 305 324 314 309 305 304 307 309 308 307 307 318 322 321 280 276 262 75 288 358 353 149 170 139 163 135 100 136 148 313 89 12 65 61 340 12 328 305 282 60 351 350 265 238 181 221 243 303 150 232 340 260 44 123 145 163 132 174 168 209 328 112 126 142 165 159 171 161 159 162 151 144 148 133 126 121 103
221 221 235 245 254 250 240 237 246 259 291 295 304 312 301 302 299 300 303 301 294 308 309 300 235 274 214 209 93 100 293 289 197 163 152 183 139 137 143 169 111 85 50 57 100 331 263 322 301 241 156 70 146 179 266 250 191 211 318 256 221 191 332 194 127 166 169 245 226 163 276 243 167 159 156 172 168 182 177 161 160 155 162 153 157 150 133 124
223 218 229 246 247 242 213 225 233 248 261 281 289 296 300 293 289 292 294 287 292 289 278 269 168 283 328 254 132 181 232 197 169 106 62 327 173 203 135 125 141 138 165 67 79 218 268 197 258 342 91 171 224 221 273 309 271 205 174 272 294 208 208 127 202 211 3 130 207 187 239 74 130 155 170 172 179 193 193 165 157 168 160 155 154 155 130 130
221 216 215 232 243 248 239 233 224 223 249 271 281 270 278 281 286 289 283 289 287 211 241 330 172 162 266 69 110 214 190 111 353 110 113 340 348 117 132 138 142 133 99 127 160 234 143 236 119 6 243 255 222 217 243 248 254 255 169 217 219 228 243 224 41 261 186 188 181 224 246 255 142 167 173 185 187 187 205 170 169 157 162 159 146 149 155 147
214 220 210 217 238 248 254 228 217 202 238 268 269 293 284 296 304 302 270 243 233 238 247 232 268 269 234 107 220 160 71 115 174 122 126 92 307 210 165 185 117 143 151 129 86 223 143 225 103 237 216 198 231 220 154 218 198 221 178 198 263 255 225 224 178 190 165 230 255 201 222 252 179 178 182 188 198 190 203 181 165 161 159 151 161 162 154 132
205 216 210 214 221 237 231 219 201 205 235 270 277 272 275 276 285 262 280 166 173 103 267 187 181 182 264 175 92 100 72 98 89 129 164 171 231 242 217 72 179 151 173 193 177 195 143 268 117 232 237 215 204 207 207 222 264 283 321 331 331 333 321 323 46 158 182 175 233 239 240 242 221 177 177 194 196 204 208 167 154 162 155 163 166 152 146 128
203 206 210 211 220 229 222 198 203 209 229 251 253 237 237 197 170 170 216 223 241 220 305 154 204 49 88 135 118 37 162 234 130 231 135 188 160 174 179 196 180 221 189 189 138 212 129 185 192 196 214 220 217 209 228 240 258 286 329 269 275 289 280 289 143 119 144 314 225 243 254 260 267 197 191 185 191 206 214 168 170 167 165 166 163 159 146 128
202 202 207 211 215 225 221 209 207 213 221 258 292 263 235 295 202 207 163 226 228 252 267 238 189 225 291 108 127 161 127 191 266 134 162 179 177 150 175 189 163 206 223 211 150 349 63 212 222 216 222 221 235 229 217 227 252 260 294 296 274 245 271 254 209 194 52 155 264 241 262 258 260 267 174 168 169 206 207 185 182 179 172 165 161 147 141 111
201 202 207 213 213 219 221 221 199 204 209 236 260 241 9 76 4 167 278 258 207 226 239 250 265 243 141 151 181 209 250 120 186 149 125 193 175 191 157 197 177 206 187 217 97 73 216 224 223 223 229 242 254 288 326 271 234 229 221 239 265 254 263 271 111 170 124 106 270 252 257 264 263 265 185 174 188 205 206 186 182 167 167 158 155 147 132 127
198 205 210 211 212 214 220 210 187 172 184 196 220 245 275 74 302 239 269 260 270 208 218 224 232 237 204 129 159 258 176 187 178 172 177 206 156 239 153 192 193 217 208 187 200 172 241 241 232 231 229 235 227 191 252 328 296 276 230 235 235 255 262 289 83 225 183 210 276 356 309 277 272 260 254 197 194 121 51 76 105 149 161 161 164 157 146 152
199 203 211 212 208 216 218 202 168 166 218 209 226 217 118 187 84 329 218 258 302 232 202 204 211 211 205 166 172 178 199 204 209 185 168 174 169 189 202 183 203 206 219 198 205 208 221 231 194 194 219 228 215 194 180 204 247 206 221 236 247 222 232 217 228 194 166 242 232 294 281 270 241 249 236 67 54 97 129 94 72 27 76 111 121 133 157 155
200 202 209 208 208 203 213 153 158 205 198 219 241 242 291 329 356 347 305 290 230 250 164 215 186 224 195 50 137 180 203 243 221 142 171 180 158 141 220 182 215 220 214 201 211 238 250 240 121 195 197 187 202 224 194 175 234 248 218 209 228 236 251 254 281 59 0 306 192 161 315 267 223 222 225 168 130 198 160 160 180 169 125 116 133 145 137 145
202 203 205 203 195 192 149 162 199 193 194 216 210 218 227 240 256 122 309 259 282 200 36 212 107 233 110 151 141 169 118 229 197 158 162 199 182 173 121 221 177 222 217 211 212 230 250 174 165 186 175 185 197 214 194 157 224 243 276 211 206 223 264 317 317 58 307 245 320 5 191 274 359 321 134 187 190 200 168 194 195 177 173 173 178 162 154 145
200 204 202 197 184 153 154 226 156 178 201 235 191 198 181 215 228 297 179 233 277 163 169 58 173 285 346 162 152 134 212 208 79 114 156 38 195 40 192 192 166 250 342 212 261 247 114 143 168 147 162 166 200 208 195 168 178 252 278 3 143 193 204 254 262 208 245 344 271 156 163 275 281 226 243 176 189 198 191 207 201 187 181 182 183 170 162 161
200 201 202 195 180 170 237 141 167 181 189 107 328 176 151 81 7 182 180 310 266 110 147 239 223 328 12 159 162 169 62 123 124 194 17 0 23 57 215 199 194 184 198 179 225 19 147 181 151 177 172 187 209 210 181 176 180 197 299 70 71 93 224 80 183 258 238 350 265 177 152 281 254 241 201 156 201 210 216 201 203 188 177 180 181 163 165 163
198 199 199 194 182 187 230 282 179 186 136 164 75 63 97 92 355 158 153 233 138 142 343 137 304 135 117 159 187 152 140 12 15 53 279 32 8 154 198 228 229 185 198 211 233 162 345 175 181 174 177 212 158 28 343 168 201 211 117 63 84 82 63 192 294 213 299 237 247 175 178 217 274 243 172 185 224 232 219 198 195 181 173 174 172 156 155 151
196 198 196 188 180 192 210 280 236 125 127 122 101 85 115 146 133 136 103 246 86 235 99 82 195 169 153 160 192 152 159 78 55 171 140 157 183 349 1 328 327 270 239 224 238 279 140 175 104 232 219 181 107 51 30 60 101 148 118 90 62 66 140 37 201 89 2 246 237 179 196 173 284 159 183 176 221 219 196 125 151 161 158 164 163 153 155 152
196 195 195 182 194 180 158 210 171 131 123 116 105 113 124 29 171 170 205 219 358 114 75 144 125 143 159 155 177 175 185 116 133 146 130 180 90 337 204 60 301 324 315 311 272 143 143 68 305 246 70 98 108 64 17 349 125 131 141 121 111 1 48 4 285 173 196 263 184 190 196 198 227 282 12 152 359 52 150 160 163 169 169 165 159 156 155 153
197 195 191 190 185 150 192 197 145 152 123 115 119 138 150 150 316 192 217 53 244 180 153 166 157 167 178 176 172 173 174 148 156 172 160 180 168 179 198 190 156 176 244 209 240 129 242 191 130 58 297 134 155 93 7 26 334 151 123 114 126 224 73 275 146 221 206 246 298 359 197 222 241 229 235 191 183 54 34 166 168 164 162 159 152 155 154 156
196 197 192 194 182 195 198 104 140 135 123 136 133 188 151 159 206 208 247 157 250 86 188 146 165 178 179 178 199 159 153 170 156 182 124 170 170 226 225 215 191 181 202 188 211 133 273 185 180 175 51 232 159 172 147 54 230 173 163 161 140 197 213 246 194 217 251 254 287 239 312 272 332 267 233 223 122 102 28 92 153 156 158 156 154 156 157 162
198 194 196 195 195 193 170 149 144 134 131 132 154 167 154 180 227 202 205 206 183 309 110 150 162 174 181 186 183 154 165 209 151 176 157 161 190 204 211 231 217 232 290 115 187 178 244 308 222 139 236 167 199 204 188 171 162 199 179 172 187 174 180 224 194 217 226 209 244 269 119 232 127 244 11 62 80 36 348 80 117 131 138 142 146 147 151 159
202 200 200 196 193 181 158 158 150 138 127 148 173 179 183 210 218 182 206 201 203 133 148 152 160 166 193 226 94 168 144 143 172 157 185 169 203 206 192 201 210 211 169 221 207 130 213 237 205 178 9 159 198 209 152 125 153 205 190 180 215 214 106 223 170 75 26 341 272 258 198 212 193 36 79 75 75 46 10 101 119 124 131 139 149 160 164 164
207 196 192 196 188 171 164 163 157 141 150 170 181 194 207 195 202 161 225 168 193 167 145 149 164 178 189 187 74 188 204 99 181 170 208 211 219 210 212 183 191 192 180 195 154 185 127 228 62 79 135 173 202 177 204 145 193 203 150 215 204 36 191 263 11 87 81 1 254 148 288 295 316 260 162 150 105 99 308 133 128 138 143 148 161 166 168 167
204 182 195 189 197 168 167 168 159 150 161 185 187 205 213 230 212 132 166 183 192 152 151 170 197 182 179 196 163 191 191 100 171 162 209 154 264 229 202 211 176 193 214 180 243 200 166 203 315 131 184 345 77 283 206 30 14 107 195 213 101 66 69 159 231 53 182 242 261 157 203 237 148 261 148 146 169 167 189 199 150 150 157 165 173 174 173 169
186 191 218 197 186 164 165 168 162 159 161 194 205 213 164 220 213 207 126 168 176 194 203 204 218 174 196 188 180 175 165 185 173 174 223 157 260 171 197 205 179 193 203 208 199 256 174 260 211 278 62 357 353 23 40 48 39 131 182 196 137 247 234 219 88 239 204 225 262 226 204 224 192 215 138 202 193 191 186 190 170 167 177 177 170 172 171 158
167 173 240 209 159 162 165 163 164 162 162 195 210 228 216 233 162 215 188 207 342 180 206 205 211 191 208 210 190 173 165 199 155 195 163 196 227 180 190 179 197 194 198 189 215 236 136 218 294 318 59 158 31 169 196 199 302 46 82 331 247 90 226 161 196 321 140 255 54 273 148 248 193 213 183 198 198 184 174 180 198 184 181 175 173 174 174 170
160 186 245 147 155 161 160 164 169 173 173 190 203 221 137 213 195 202 214 198 214 198 205 201 197 228 201 220 211 175 195 187 166 200 199 169 213 177 182 183 182 190 189 189 208 179 257 150 254 193 309 116 213 190 202 175 186 218 155 211 212 189 291 93 279 191 174 205 221 268 268 266 229 254 184 193 186 180 177 187 188 182 182 182 180 177 177 175
170 205 248 157 157 153 160 170 182 181 181 208 224 231 201 206 186 207 211 216 257 41 111 201 198 211 200 197 222 190 172 200 193 190 194 207 187 238 189 179 182 184 174 185 208 174 206 162 214 116 244 215 243 190 209 200 196 189 185 196 189 168 173 164 248 161 219 154 235 175 252 266 241 5 40 147 183 176 187 178 176 176 176 180 181 183 181 176
220 193 209 160 147 147 153 195 215 188 172 188 204 200 199 243 229 199 203 217 226 223 61 7 293 85 351 237 61 170 155 197 200 204 206 211 197 218 339 294 188 153 157 182 200 196 174 132 161 197 212 210 222 358 61 52 14 248 210 217 180 206 182 198 208 223 155 233 87 200 331 258 236 305 353 47 73 142 158 156 165 170 174 179 181 180 184 180
227 238 32 151 156 154 165 195 187 192 203 223 52 76 221 238 229 181 202 196 214 216 233 217 204 190 231 193 127 110 176 204 192 208 208 215 235 60 332 330 193 162 165 13 120 272 71 163 182 233 53 21 353 120 27 45 56 332 274 225 177 207 195 209 222 163 184 204 192 258 257 257 272 26 352 37 42 81 128 152 158 168 171 178 173 174 170 165
236 162 312 175 161 157 174 192 183 194 217 126 203 230 175 233 193 201 211 192 197 183 219 219 192 220 246 95 140 182 150 214 254 220 238 219 234 7 341 339 350 171 167 211 176 179 146 240 143 123 282 60 271 16 310 19 89 226 199 205 217 211 202 194 81 353 240 219 181 137 241 165 271 303 358 68 97 100 128 144 154 159 171 171 169 164 165 167
121 0 208 248 183 166 193 175 187 185 191 186 183 212 188 220 221 219 202 199 195 208 187 232 220 116 219 121 160 176 230 206 334 299 43 328 218 324 326 10 351 322 51 10 5 167 163 152 153 197 215 218 214 204 210 203 210 202 220 206 210 209 190 152 219 183 236 184 163 215 234 282 281 191 167 181 142 109 154 126 125 158 159 163 170 168 167 170
174 212 167 213 253 210 205 186 174 175 193 183 204 215 207 222 214 206 208 227 201 209 211 89 139 199 193 136 213 221 226 204 197 207 174 235 207 30 324 355 35 32 11 25 348 89 177 208 186 201 207 224 237 285 282 111 76 196 208 195 207 206 203 199 215 200 223 176 188 225 186 181 222 202 209 188 193 166 169 175 153 141 148 155 161 166 166 170
225 215 157 205 113 247 270 190 181 178 194 176 202 165 201 217 207 182 189 229 209 210 208 204 182 175 205 200 218 229 224 219 218 220 213 189 66 145 74 105 57 76 43 28 311 80 124 205 227 224 223 231 149 184 280 162 180 216 198 207 206 198 196 191 195 220 132 109 240 214 150 181 218 207 203 196 209 191 183 176 161 153 167 163 156 142 138 142
189 252 201 211 181 192 223 235 201 193 201 173 200 174 197 208 206 214 181 220 209 191 213 212 216 216 208 202 207 220 209 218 197 222 227 180 115 196 54 191 199 155 126 173 352 122 149 226 231 209 242 226 132 216 9 342 224 214 204 202 201 204 196 204 216 212 152 202 230 131 178 206 204 197 197 199 188 195 181 177 182 170 135 125 137 154 167 169
353 356 307 327 178 201 206 239 197 212 197 179 200 198 193 201 209 206 199 181 209 197 196 219 216 219 215 211 202 219 206 202 227 226 203 197 183 144 198 16 261 117 127 122 156 190 122 245 236 191 240 231 237 230 23 331 315 314 231 213 206 198 205 210 219 214 201 219 216 178 187 213 178 189 192 195 194 191 135 128 124 137 160 160 165 172 181 182
201 176 233 47 0 37 69 141 169 213 244 184 189 200 202 201 214 204 204 180 192 214 197 221 231 216 211 211 209 217 213 212 214 209 204 172 197 198 214 185 133 53 162 188 163 248 176 237 179 152 222 233 213 123 183 63 36 282 296 262 218 212 211 213 225 226 228 259 253 267 309 268 248 158 178 49 89 91 99 134 160 155 156 165 171 183 188 192
355 12 2 119 195 198 125 166 176 194 222 296 220 205 205 207 216 199 206 196 197 190 191 212 224 221 201 206 214 226 228 222 226 225 178 167 207 197 174 233 145 157 172 179 160 181 171 252 42 144 211 237 200 183 146 81 38 271 271 258 239 200 197 212 221 211 198 223 227 229 255 247 167 138 70 106 116 140 157 166 155 162 170 169 180 192 193 194
39 142 86 39 281 178 176 157 153 153 218 207 187 218 209 204 207 163 222 232 228 241 217 223 229 219 214 207 217 222 228 223 230 207 188 202 204 100 161 159 166 158 167 193 147 159 187 162 168 185 213 223 213 158 159 116 70 302 249 236 199 207 229 223 234 204 215 211 215 213 236 131 182 156 145 171 175 175 167 176 183 170 177 181 190 194 194 191